Time,TemperatureF,DewpointF,PressureIn,WindDirection,WindDirectionDegrees,WindSpeedMPH,WindSpeedGustMPH,Humidity,HourlyPrecipIn,Conditions,Clouds,dailyrainin,SoftwareType,DateUTC
2013-06-28 00:01:00,75.0,64.0,29.60,SSE,155,5.0,-999.0,69,-99.99,,,-99.99,,2013-06-28 05:01:00,
2013-06-28 00:11:00,73.0,64.0,29.61,North,0,0.0,-999.0,73,-99.99,,,-99.99,,2013-06-28 05:11:00,
2013-06-28 00:22:00,73.0,64.0,29.62,North,0,0.0,-999.0,73,-99.99,,,-99.99,,2013-06-28 05:22:00,
2013-06-28 00:33:00,72.0,64.0,29.62,North,0,0.0,-999.0,78,-99.99,,,-99.99,,2013-06-28 05:33:00,
2013-06-28 00:43:00,72.0,64.0,29.62,North,0,0.0,-999.0,78,-99.99,,,-99.99,,2013-06-28 05:43:00,
2013-06-28 00:52:00,72.0,63.0,29.62,North,0,0.0,-999.0,73,-99.99,,,-99.99,,2013-06-28 05:52:00,
2013-06-28 01:02:00,72.0,64.0,29.62,North,0,0.0,-999.0,78,-99.99,,,-99.99,,2013-06-28 06:02:00,
2013-06-28 01:12:00,70.0,63.0,29.63,North,0,0.0,-999.0,77,-99.99,,,-99.99,,2013-06-28 06:12:00,
2013-06-28 01:22:00,70.0,63.0,29.63,North,0,0.0,-999.0,77,-99.99,,,-99.99,,2013-06-28 06:22:00,
2013-06-28 01:33:00,70.0,63.0,29.63,North,0,0.0,-999.0,77,-99.99,,,-99.99,,2013-06-28 06:33:00,
2013-06-28 01:42:00,70.0,63.0,29.63,North,0,0.0,-999.0,77,-99.99,,,-99.99,,2013-06-28 06:42:00,
2013-06-28 01:52:00,70.0,63.0,29.63,North,0,0.0,-999.0,77,-99.99,,,-99.99,,2013-06-28 06:52:00,
2013-06-28 02:01:00,68.0,63.0,29.64,North,0,0.0,-999.0,82,-99.99,,,-99.99,,2013-06-28 07:01:00,
2013-06-28 02:11:00,68.0,63.0,29.63,North,0,0.0,-999.0,82,-99.99,,,-99.99,,2013-06-28 07:11:00,
2013-06-28 02:22:00,68.0,63.0,29.64,North,0,0.0,-999.0,82,-99.99,,,-99.99,,2013-06-28 07:22:00,
2013-06-28 02:33:00,68.0,63.0,29.64,North,0,0.0,-999.0,82,-99.99,,,-99.99,,2013-06-28 07:33:00,
2013-06-28 02:42:00,68.0,63.0,29.64,North,0,0.0,-999.0,82,-99.99,,,-99.99,,2013-06-28 07:42:00,
2013-06-28 02:52:00,68.0,63.0,29.64,North,0,0.0,-999.0,82,-99.99,,,-99.99,,2013-06-28 07:52:00,
2013-06-28 03:01:00,68.0,61.0,29.65,North,0,0.0,-999.0,77,-99.99,,,-99.99,,2013-06-28 08:01:00,
2013-06-28 03:11:00,68.0,63.0,29.65,North,0,5.0,-999.0,82,-99.99,,,-99.99,,2013-06-28 08:11:00,
2013-06-28 03:21:00,68.0,61.0,29.65,North,0,0.0,-999.0,77,-99.99,,,-99.99,,2013-06-28 08:21:00,
2013-06-28 03:33:00,68.0,63.0,29.65,North,0,0.0,-999.0,82,-99.99,,,-99.99,,2013-06-28 08:33:00,
2013-06-28 03:43:00,66.0,63.0,29.65,North,0,0.0,-999.0,88,-99.99,,,-99.99,,2013-06-28 08:43:00,
2013-06-28 03:52:00,66.0,63.0,29.64,North,0,0.0,-999.0,88,-99.99,,,-99.99,,2013-06-28 08:52:00,
2013-06-28 04:02:00,66.0,63.0,29.64,North,0,0.0,-999.0,88,-99.99,,,-99.99,,2013-06-28 09:02:00,
2013-06-28 04:11:00,66.0,63.0,29.64,North,0,0.0,-999.0,88,-99.99,,,-99.99,,2013-06-28 09:11:00,
2013-06-28 04:22:00,64.0,63.0,29.64,North,0,0.0,-999.0,93,-99.99,,,-99.99,,2013-06-28 09:22:00,
2013-06-28 04:33:00,64.0,61.0,29.64,SW,225,3.0,-999.0,88,-99.99,,,-99.99,,2013-06-28 09:33:00,
2013-06-28 04:42:00,64.0,61.0,29.64,North,0,0.0,-999.0,88,-99.99,,,-99.99,,2013-06-28 09:42:00,
2013-06-28 04:52:00,64.0,61.0,29.63,North,0,0.0,-999.0,88,-99.99,,,-99.99,,2013-06-28 09:52:00,
2013-06-28 05:02:00,64.0,61.0,29.64,North,0,0.0,-999.0,88,-99.99,,,-99.99,,2013-06-28 10:02:00,
2013-06-28 05:11:00,64.0,63.0,29.63,SSE,155,5.0,-999.0,93,-99.99,,,-99.99,,2013-06-28 10:11:00,
2013-06-28 05:22:00,64.0,63.0,29.64,North,0,0.0,-999.0,93,-99.99,,,-99.99,,2013-06-28 10:22:00,
2013-06-28 05:33:00,64.0,63.0,29.64,SSE,154,3.0,-999.0,93,-99.99,,,-99.99,,2013-06-28 10:33:00,
2013-06-28 05:42:00,64.0,63.0,29.64,North,0,3.0,-999.0,93,-99.99,,,-99.99,,2013-06-28 10:42:00,
2013-06-28 05:52:00,64.0,63.0,29.64,North,0,5.0,-999.0,93,-99.99,,,-99.99,,2013-06-28 10:52:00,
2013-06-28 06:02:00,64.0,63.0,29.64,North,0,5.0,-999.0,93,-99.99,,,-99.99,,2013-06-28 11:02:00,
2013-06-28 06:11:00,64.0,63.0,29.64,North,0,6.0,-999.0,93,-99.99,,,-99.99,,2013-06-28 11:11:00,
2013-06-28 06:22:00,64.0,63.0,29.64,North,0,5.0,-999.0,93,-99.99,,,-99.99,,2013-06-28 11:22:00,
2013-06-28 06:34:00,64.0,63.0,29.64,SSW,204,5.0,-999.0,93,-99.99,,,-99.99,,2013-06-28 11:34:00,
2013-06-28 06:43:00,64.0,63.0,29.64,SSE,154,8.0,-999.0,93,-99.99,,,-99.99,,2013-06-28 11:43:00,
2013-06-28 06:53:00,64.0,63.0,29.65,SSE,154,3.0,-999.0,93,-99.99,,,-99.99,,2013-06-28 11:53:00,
2013-06-28 07:01:00,64.0,63.0,29.65,SSE,154,3.0,-999.0,93,-99.99,,,-99.99,,2013-06-28 12:01:00,
2013-06-28 07:12:00,64.0,63.0,29.65,SE,135,5.0,-999.0,93,-99.99,,,-99.99,,2013-06-28 12:12:00,
2013-06-28 07:22:00,64.0,63.0,29.65,SE,135,6.0,-999.0,93,-99.99,,,-99.99,,2013-06-28 12:22:00,
2013-06-28 07:33:00,64.0,63.0,29.65,SSE,155,6.0,-999.0,93,-99.99,,,-99.99,,2013-06-28 12:33:00,
2013-06-28 07:43:00,66.0,63.0,29.65,SSE,155,9.0,-999.0,88,-99.99,,,-99.99,,2013-06-28 12:43:00,
2013-06-28 07:52:00,68.0,64.0,29.65,ENE,69,5.0,-999.0,88,-99.99,,,-99.99,,2013-06-28 12:52:00,
2013-06-28 08:01:00,68.0,63.0,29.65,SSE,155,9.0,-999.0,82,-99.99,,,-99.99,,2013-06-28 13:01:00,
2013-06-28 08:11:00,70.0,63.0,29.66,North,0,7.0,-999.0,77,-99.99,,,-99.99,,2013-06-28 13:11:00,
2013-06-28 08:23:00,70.0,63.0,29.65,SSE,154,7.0,-999.0,77,-99.99,,,-99.99,,2013-06-28 13:23:00,
2013-06-28 08:33:00,70.0,63.0,29.66,North,0,8.0,-999.0,77,-99.99,,,-99.99,,2013-06-28 13:33:00,
2013-06-28 08:43:00,72.0,64.0,29.66,East,90,9.0,-999.0,78,-99.99,,,-99.99,,2013-06-28 13:43:00,
2013-06-28 08:53:00,72.0,63.0,29.66,SSE,154,12.0,-999.0,73,-99.99,,,-99.99,,2013-06-28 13:53:00,
2013-06-28 09:01:00,72.0,63.0,29.66,ESE,114,6.0,-999.0,73,-99.99,,,-99.99,,2013-06-28 14:01:00,
2013-06-28 09:11:00,72.0,63.0,29.65,SSE,155,14.0,-999.0,73,-99.99,,,-99.99,,2013-06-28 14:11:00,
2013-06-28 09:22:00,72.0,63.0,29.66,SSE,154,13.0,-999.0,73,-99.99,,,-99.99,,2013-06-28 14:22:00,
2013-06-28 09:33:00,73.0,63.0,29.66,SE,135,16.0,-999.0,68,-99.99,,,-99.99,,2013-06-28 14:33:00,
2013-06-28 09:44:00,73.0,63.0,29.66,SE,135,13.0,-999.0,68,-99.99,,,-99.99,,2013-06-28 14:44:00,
2013-06-28 09:53:00,73.0,63.0,29.66,SSE,154,12.0,-999.0,68,-99.99,,,-99.99,,2013-06-28 14:53:00,
2013-06-28 10:02:00,73.0,63.0,29.65,SE,135,6.0,-999.0,68,-99.99,,,-99.99,,2013-06-28 15:02:00,
2013-06-28 10:11:00,73.0,63.0,29.65,SSE,155,14.0,-999.0,68,-99.99,,,-99.99,,2013-06-28 15:11:00,
2013-06-28 10:24:00,73.0,63.0,29.65,SE,135,18.0,-999.0,68,-99.99,,,-99.99,,2013-06-28 15:24:00,
2013-06-28 10:34:00,75.0,63.0,29.65,SE,135,14.0,-999.0,64,-99.99,,,-99.99,,2013-06-28 15:34:00,
2013-06-28 10:43:00,75.0,63.0,29.64,SSE,154,7.0,-999.0,64,-99.99,,,-99.99,,2013-06-28 15:43:00,
2013-06-28 10:52:00,75.0,63.0,29.64,SE,135,13.0,-999.0,64,-99.99,,,-99.99,,2013-06-28 15:52:00,
2013-06-28 11:01:00,75.0,63.0,29.64,ESE,115,16.0,-999.0,64,-99.99,,,-99.99,,2013-06-28 16:01:00,
2013-06-28 11:11:00,75.0,61.0,29.64,North,0,10.0,-999.0,60,-99.99,,,-99.99,,2013-06-28 16:11:00,
2013-06-28 11:24:00,77.0,61.0,29.64,SE,135,16.0,-999.0,57,-99.99,,,-99.99,,2013-06-28 16:24:00,
2013-06-28 11:33:00,77.0,59.0,29.64,SSE,155,14.0,-999.0,53,-99.99,,,-99.99,,2013-06-28 16:33:00,
2013-06-28 11:44:00,79.0,61.0,29.64,ESE,114,10.0,-999.0,54,-99.99,,,-99.99,,2013-06-28 16:44:00,
2013-06-28 11:53:00,79.0,61.0,29.64,North,0,10.0,-999.0,54,-99.99,,,-99.99,,2013-06-28 16:53:00,
2013-06-28 12:02:00,79.0,61.0,29.64,SE,135,15.0,-999.0,54,-99.99,,,-99.99,,2013-06-28 17:02:00,
2013-06-28 12:11:00,79.0,59.0,29.64,SSE,155,18.0,-999.0,50,-99.99,,,-99.99,,2013-06-28 17:11:00,
2013-06-28 12:22:00,79.0,57.0,29.64,SE,135,22.0,-999.0,47,-99.99,,,-99.99,,2013-06-28 17:22:00,
2013-06-28 12:33:00,79.0,59.0,29.64,SSE,154,12.0,-999.0,50,-99.99,,,-99.99,,2013-06-28 17:33:00,
2013-06-28 12:44:00,79.0,57.0,29.64,SE,135,21.0,-999.0,47,-99.99,,,-99.99,,2013-06-28 17:44:00,
2013-06-28 12:52:00,79.0,59.0,29.64,North,0,14.0,-999.0,50,-99.99,,,-99.99,,2013-06-28 17:52:00,
2013-06-28 13:01:00,79.0,59.0,29.64,SSE,155,18.0,-999.0,50,-99.99,,,-99.99,,2013-06-28 18:01:00,
2013-06-28 13:11:00,79.0,63.0,29.64,SSE,155,14.0,-999.0,57,-99.99,,,-99.99,,2013-06-28 18:11:00,
2013-06-28 13:33:00,81.0,61.0,29.63,SSE,154,16.0,-999.0,50,-99.99,,,-99.99,,2013-06-28 18:33:00,
2013-06-28 13:52:00,81.0,57.0,29.62,North,0,14.0,-999.0,44,-99.99,,,-99.99,,2013-06-28 18:52:00,
2013-06-28 14:01:00,81.0,57.0,29.62,SE,135,21.0,-999.0,44,-99.99,,,-99.99,,2013-06-28 19:01:00,
2013-06-28 17:52:00,81.0,55.0,29.61,SE,135,12.0,-999.0,41,-99.99,,,-99.99,,2013-06-28 22:52:00,
2013-06-28 18:01:00,81.0,55.0,29.60,SSE,154,12.0,-999.0,41,-99.99,,,-99.99,,2013-06-28 23:01:00,
2013-06-28 18:11:00,81.0,57.0,29.61,SSE,154,16.0,-999.0,44,-99.99,,,-99.99,,2013-06-28 23:11:00,
2013-06-28 18:53:00,81.0,55.0,29.60,SE,135,12.0,-999.0,41,-99.99,,,-99.99,,2013-06-28 23:53:00,
2013-06-28 19:02:00,81.0,57.0,29.60,SW,225,15.0,-999.0,44,-99.99,,,-99.99,,2013-06-29 00:02:00,
2013-06-28 19:11:00,81.0,57.0,29.59,SSW,204,14.0,-999.0,44,-99.99,,,-99.99,,2013-06-29 00:11:00,
2013-06-28 19:22:00,81.0,57.0,29.59,North,0,9.0,-999.0,44,-99.99,,,-99.99,,2013-06-29 00:22:00,
2013-06-28 19:33:00,81.0,57.0,29.59,North,0,16.0,-999.0,44,-99.99,,,-99.99,,2013-06-29 00:33:00,
2013-06-28 19:42:00,79.0,57.0,29.59,North,0,13.0,-999.0,47,-99.99,,,-99.99,,2013-06-29 00:42:00,
2013-06-28 19:52:00,79.0,59.0,29.59,SSW,204,10.0,-999.0,50,-99.99,,,-99.99,,2013-06-29 00:52:00,
2013-06-28 20:01:00,79.0,57.0,29.59,North,0,8.0,-999.0,47,-99.99,,,-99.99,,2013-06-29 01:01:00,
2013-06-28 20:11:00,79.0,57.0,29.59,SSE,154,13.0,-999.0,47,-99.99,,,-99.99,,2013-06-29 01:11:00,
2013-06-28 20:22:00,79.0,55.0,29.59,North,0,10.0,-999.0,44,-99.99,,,-99.99,,2013-06-29 01:22:00,
2013-06-28 20:31:00,79.0,57.0,29.59,North,0,12.0,-999.0,47,-99.99,,,-99.99,,2013-06-29 01:31:00,
2013-06-28 20:42:00,79.0,55.0,29.59,North,0,10.0,-999.0,44,-99.99,,,-99.99,,2013-06-29 01:42:00,
2013-06-28 20:51:00,79.0,57.0,29.59,SSW,205,7.0,-999.0,47,-99.99,,,-99.99,,2013-06-29 01:51:00,
2013-06-28 21:01:00,79.0,57.0,29.59,North,0,5.0,-999.0,47,-99.99,,,-99.99,,2013-06-29 02:01:00,
2013-06-28 21:10:00,77.0,57.0,29.59,North,0,0.0,-999.0,50,-99.99,,,-99.99,,2013-06-29 02:10:00,
2013-06-28 21:21:00,75.0,57.0,29.59,SSE,155,5.0,-999.0,53,-99.99,,,-99.99,,2013-06-29 02:21:00,
2013-06-28 21:31:00,75.0,59.0,29.59,North,0,0.0,-999.0,57,-99.99,,,-99.99,,2013-06-29 02:31:00,
2013-06-28 21:41:00,75.0,59.0,29.59,North,0,0.0,-999.0,57,-99.99,,,-99.99,,2013-06-29 02:41:00,
2013-06-28 21:51:00,73.0,59.0,29.59,SSE,154,3.0,-999.0,60,-99.99,,,-99.99,,2013-06-29 02:51:00,
2013-06-28 22:01:00,72.0,59.0,29.59,SSE,155,6.0,-999.0,64,-99.99,,,-99.99,,2013-06-29 03:01:00,
2013-06-28 22:11:00,72.0,59.0,29.59,SSE,155,6.0,-999.0,64,-99.99,,,-99.99,,2013-06-29 03:11:00,
2013-06-28 22:21:00,72.0,59.0,29.59,SSE,154,7.0,-999.0,64,-99.99,,,-99.99,,2013-06-29 03:21:00,
2013-06-28 22:32:00,73.0,59.0,29.59,North,0,5.0,-999.0,60,-99.99,,,-99.99,,2013-06-29 03:32:00,
2013-06-28 22:41:00,72.0,59.0,29.59,SSE,154,8.0,-999.0,64,-99.99,,,-99.99,,2013-06-29 03:41:00,
2013-06-28 22:51:00,72.0,59.0,29.59,SSE,155,5.0,-999.0,64,-99.99,,,-99.99,,2013-06-29 03:51:00,
2013-06-28 23:01:00,72.0,59.0,29.59,North,0,6.0,-999.0,64,-99.99,,,-99.99,,2013-06-29 04:01:00,
2013-06-28 23:11:00,72.0,61.0,29.59,SSE,154,7.0,-999.0,68,-99.99,,,-99.99,,2013-06-29 04:11:00,
2013-06-28 23:22:00,72.0,59.0,29.59,SSE,155,5.0,-999.0,64,-99.99,,,-99.99,,2013-06-29 04:22:00,
2013-06-28 23:31:00,72.0,59.0,29.59,SSE,154,7.0,-999.0,64,-99.99,,,-99.99,,2013-06-29 04:31:00,
2013-06-28 23:41:00,72.0,59.0,29.59,SE,135,8.0,-999.0,64,-99.99,,,-99.99,,2013-06-29 04:41:00,
2013-06-28 23:51:00,72.0,61.0,29.59,North,0,5.0,-999.0,68,-99.99,,,-99.99,,2013-06-29 04:51:00,